RH
2 2 2 2 2 2 2 2 2 2 2 2 3 3 2 2 3 3 3 3 3 3 2 3 3 3 3 3 3 4 6 7 8 10 14 19 25 31 40 51 61 61 53 52 58 62 64 65 64 61 60 59 57 56 58 53 50 52 50 51 56 55 62 85 102 100 97 101 101 101 102 101 101 100
1 1 1 2 2 2 2 2 2 2 2 2 2 3 3 2 2 2 3 3 3 3 2 2 3 3 3 3 3 3 5 6 7 9 11 15 20 26 33 43 56 63 58 54 59 64 66 67 66 64 64 64 62 62 64 59 53 54 54 52 54 61 74 92 102 103 101 101 102 101 100 100 98 98
2 1 2 2 2 2 2 1 2 2 2 2 2 2 3 2 2 2 3 3 3 3 3 2 3 3 3 3 3 3 4 5 6 7 9 13 17 22 28 37 49 61 62 58 60 65 68 69 67 66 66 67 67 67 69 66 58 56 58 55 51 61 87 102 101 102 104 102 102 100 100 100 98 99
2 1 1 2 2 2 2 2 2 1 2 2 2 2 2 2 2 2 2 3 3 3 3 3 2 3 3 3 3 3 3 4 6 7 9 11 14 18 24 32 43 56 64 63 63 67 70 71 69 67 68 71 71 72 75 71 63 61 61 60 53 52 75 97 99 99 101 99 100 101 100 101 100 101
2 2 1 1 2 2 2 2 1 2 2 2 2 2 2 3 3 2 2 3 3 3 3 3 2 2 3 3 3 3 3 3 4 6 8 10 13 16 21 29 38 50 63 66 65 68 72 74 73 69 69 74 75 76 81 77 68 66 66 65 59 49 60 89 101 99 100 101 100 101 101 101 100 101
2 2 1 1 2 2 2 2 2 2 2 2 2 2 2 3 2 2 2 2 3 3 3 3 3 2 3 3 3 3 3 4 4 5 7 9 11 14 18 25 33 44 59 67 67 68 72 77 78 74 72 77 79 79 84 83 74 70 72 70 64 50 52 81 103 102 102 104 101 100 100 100 99 100
2 1 1 2 2 2 2 2 2 2 2 2 2 2 2 2 2 2 2 2 3 3 3 4 3 2 3 3 3 3 3 3 3 4 6 8 10 13 15 21 30 39 52 63 66 67 71 79 83 81 78 80 85 84 86 89 81 75 77 76 69 56 50 71 99 104 100 100 100 98 99 100 100 100
2 1 1 1 1 2 2 2 2 2 2 2 2 2 2 2 2 3 2 2 3 3 3 3 3 2 3 3 3 4 3 3 3 3 4 6 9 12 14 19 27 36 46 57 64 66 70 78 85 86 83 83 88 89 88 91 89 83 81 80 75 66 55 61 85 102 101 98 100 100 100 102 102 101
1 1 1 1 1 2 1 1 2 2 2 2 2 2 2 2 2 2 3 2 2 2 2 3 4 3 3 3 3 3 4 3 3 3 4 5 7 10 13 17 23 33 42 52 61 66 70 78 85 88 86 85 89 92 91 92 95 92 87 82 81 78 68 60 69 89 101 101 101 103 103 104 102 100
1 1 1 1 1 1 2 1 1 2 2 2 2 2 2 2 2 2 3 2 2 2 2 3 3 3 3 3 3 3 4 3 3 4 3 4 6 9 12 16 21 29 39 48 58 66 72 79 88 93 91 90 91 94 95 95 98 101 93 83 84 87 83 70 62 72 92 102 101 101 104 104 101 98
1 1 1 1 1 1 1 1 1 2 2 2 2 2 2 2 2 3 3 2 2 2 2 3 3 3 3 3 3 3 4 4 3 3 3 4 5 8 11 15 20 27 35 45 55 66 74 81 90 97 97 96 96 98 100 100 101 106 100 85 84 92 93 85 72 68 83 100 103 102 103 103 100 98
1 1 1 1 1 1 1 1 1 1 1 2 2 2 2 2 2 3 3 3 2 2 2 3 3 3 4 3 3 3 3 4 4 3 3 4 4 7 10 14 18 25 33 41 52 63 73 81 91 100 101 99 99 100 103 105 105 108 106 92 85 91 98 98 89 79 85 100 104 103 103 100 98 97
1 1 1 1 1 1 1 1 1 1 1 2 2 2 2 2 2 3 3 3 2 2 2 2 3 3 3 3 3 3 3 4 4 4 4 4 4 6 9 13 17 23 31 38 48 60 72 82 91 100 105 103 102 102 103 106 107 107 106 98 90 92 101 107 103 94 96 101 100 101 103 102 99 99
1 1 1 1 1 1 1 1 1 1 1 1 2 2 2 2 2 3 3 3 2 2 2 2 3 3 3 4 4 3 4 4 4 4 4 3 4 5 7 12 15 21 29 36 45 57 70 82 91 100 106 107 106 106 104 104 106 104 103 99 96 98 104 110 110 106 105 107 104 106 108 102 96 97
1 1 1 1 1 1 1 1 1 1 1 1 2 2 2 2 3 3 3 3 2 2 2 2 3 3 3 4 4 4 4 4 4 5 4 3 4 5 6 11 14 20 27 35 44 55 68 82 93 101 107 109 108 106 103 102 104 103 102 99 99 103 104 107 111 108 107 112 112 109 107 99 88 86
1 1 1 1 1 1 1 1 1 1 1 1 2 2 2 2 2 3 3 3 2 2 2 3 3 3 3 4 4 4 4 4 4 4 5 4 4 4 6 9 14 19 25 33 41 52 65 81 94 102 107 107 104 103 102 102 103 103 102 99 99 102 101 103 110 107 105 111 111 108 108 105 98 93
1 1 1 1 1 1 1 1 1 1 1 1 2 2 2 2 2 3 3 2 3 2 2 3 3 3 3 3 4 5 4 4 5 4 5 5 4 4 5 8 13 17 23 31 39 47 60 77 92 102 106 103 102 103 102 102 102 103 101 99 100 101 99 101 106 104 101 103 104 106 106 104 105 104
1 1 1 1 1 1 1 1 1 1 1 1 2 2 2 3 2 3 3 3 3 3 3 3 3 2 3 3 4 5 4 5 5 4 5 5 5 5 5 7 11 16 22 30 37 44 55 71 90 103 107 104 102 103 103 101 101 102 101 99 100 100 100 102 104 102 100 100 102 106 104 99 102 107
1 1 1 1 2 1 1 1 1 1 1 1 2 2 2 3 3 3 3 3 3 3 3 3 3 3 3 3 4 5 5 5 5 5 5 5 5 5 5 6 10 15 21 28 36 45 52 64 84 101 106 104 102 101 101 101 101 101 101 101 100 99 100 103 103 101 100 101 103 105 104 101 101 104
1 2 1 1 2 1 1 1 1 1 2 1 2 2 2 3 3 2 3 3 3 3 3 3 3 3 3 4 4 5 5 5 5 5 5 5 5 5 5 5 8 12 20 26 34 44 51 61 79 96 103 103 101 100 101 101 100 100 100 101 102 100 99 101 102 102 102 105 107 106 103 102 100 101
1 1 1 1 2 1 1 1 1 1 2 1 2 2 2 3 3 2 3 3 2 3 3 3 3 3 4 4 4 5 5 5 5 5 5 5 5 6 5 5 6 10 17 25 32 41 51 60 74 91 103 106 103 101 102 101 100 100 99 100 102 101 100 102 104 105 103 103 105 103 100 100 102 104
1 1 2 1 1 2 1 1 2 1 2 2 2 2 2 3 3 3 3 3 3 3 3 3 3 4 4 4 5 5 5 5 5 5 5 5 5 6 6 6 6 8 14 22 30 39 49 59 71 85 99 105 104 101 101 101 100 100 99 99 101 102 101 102 104 105 105 104 104 102 102 103 103 102
2 1 2 1 1 2 1 1 2 1 1 2 2 2 3 3 3 3 3 3 3 3 4 4 4 4 4 4 5 5 5 5 6 5 5 5 5 6 7 6 5 6 11 18 27 36 45 57 69 80 94 103 103 100 100 101 100 100 100 99 99 101 101 101 104 106 105 106 105 103 103 104 102 101
2 2 2 2 1 2 2 2 2 2 2 2 2 2 2 3 3 3 3 4 4 4 4 4 4 4 4 5 5 5 5 5 6 5 5 5 6 6 6 7 6 6 8 14 23 32 40 54 67 77 89 100 104 102 101 101 100 100 100 99 99 101 101 102 104 104 102 105 106 103 102 102 100 101
2 2 2 2 2 1 2 2 2 2 2 2 2 2 2 3 3 3 4 4 4 5 5 5 5 5 4 5 5 5 6 5 5 6 5 5 6 6 6 7 6 6 7 12 20 28 36 50 67 77 86 97 105 105 102 100 100 100 100 100 99 100 101 101 102 102 103 105 106 103 102 102 100 100
2 2 2 2 2 2 2 2 2 2 2 2 2 2 2 3 3 3 4 4 4 5 5 5 5 5 5 5 5 5 6 6 6 6 5 5 5 6 6 6 6 6 7 10 17 26 34 47 65 79 88 97 104 105 101 100 101 100 100 101 100 99 100 101 100 101 101 102 103 101 102 103 100 100
2 2 2 2 2 2 2 2 2 2 2 2 2 2 2 3 3 3 4 4 4 4 5 5 5 5 5 5 6 6 6 6 6 6 6 5 6 5 6 6 6 6 7 8 13 21 30 43 62 79 89 95 101 103 102 100 101 100 100 101 100 99 100 101 101 100 99 100 101 101 102 102 101 101
2 2 2 2 2 2 2 2 2 2 2 2 2 2 2 2 3 3 3 4 4 4 4 4 5 5 5 6 6 6 7 7 7 6 6 6 6 6 6 6 6 6 6 7 9 15 24 37 54 73 86 94 98 102 102 100 100 101 101 101 101 100 99 100 102 100 98 99 101 100 101 101 99 102
2 2 2 2 2 2 2 2 2 2 2 2 2 2 2 2 3 3 3 4 4 4 4 4 4 5 6 6 6 7 7 7 7 6 6 6 6 6 6 6 6 6 6 7 8 11 19 30 44 63 80 90 97 102 103 101 100 101 100 100 101 101 99 99 102 101 99 99 100 100 101 101 101 104
2 2 2 2 2 2 2 2 2 2 2 2 2 2 2 2 2 3 4 4 4 4 4 4 4 5 5 6 7 7 7 8 7 7 6 6 6 6 7 7 7 7 6 7 8 10 16 25 38 54 71 84 93 101 104 102 100 100 100 100 100 101 100 99 100 101 100 98 99 100 101 101 102 104
2 2 2 3 2 3 3 2 2 2 2 2 3 2 2 2 2 2 3 4 5 5 5 5 5 5 5 6 7 7 7 7 7 7 6 6 6 6 6 7 7 7 7 7 8 9 13 22 34 49 65 79 89 97 103 103 101 100 100 100 100 100 100 100 99 101 101 99 99 100 100 100 101 101
3 2 2 3 2 2 3 3 2 2 2 2 2 3 2 2 2 3 3 4 4 5 5 5 5 5 6 6 6 7 7 7 7 7 6 6 6 6 6 7 6 7 7 7 7 9 11 18 30 45 61 76 86 94 101 104 102 101 100 100 101 100 100 100 100 100 101 100 100 100 100 100 100 100
3 3 2 3 3 2 3 3 3 3 3 2 2 2 3 3 3 3 3 3 4 5 5 5 5 5 6 6 6 7 7 7 7 7 6 6 6 6 6 7 6 6 7 6 7 8 10 15 25 39 56 73 84 93 100 103 103 103 101 100 100 100 101 101 100 99 100 100 100 100 100 100 101 100
4 3 3 2 3 3 2 3 3 3 3 3 2 2 3 3 3 3 3 3 3 4 5 5 6 6 5 6 7 7 7 7 7 7 7 6 7 6 6 7 7 6 7 6 6 8 10 13 21 34 50 67 80 90 99 104 105 104 102 101 101 100 101 100 100 100 100 99 101 103 102 100 102 102
3 4 3 3 3 3 3 3 3 3 3 3 3 3 2 3 3 3 3 3 3 4 5 5 5 6 6 6 7 7 7 7 7 7 7 7 6 7 6 6 7 6 7 7 6 7 9 12 19 31 46 63 77 88 96 104 107 104 102 102 101 100 100 100 99 100 100 98 101 106 105 101 101 102
3 4 4 3 3 3 3 3 3 3 3 3 3 3 2 3 3 3 3 4 3 4 4 5 5 6 5 6 7 6 7 8 7 7 8 7 7 7 6 6 7 7 6 7 6 7 9 11 17 28 43 60 77 88 94 100 106 106 103 102 101 100 100 100 100 100 100 99 100 103 105 105 103 100
3 4 4 3 3 3 3 3 3 3 3 3 3 3 3 3 3 3 3 4 3 4 4 4 5 6 6 6 6 6 7 7 8 8 8 7 7 7 7 6 7 7 6 7 7 7 9 11 17 26 38 54 73 87 92 96 102 106 106 104 103 102 100 100 101 101 100 100 99 100 104 108 106 100
4 4 3 4 4 3 3 3 3 3 3 3 3 3 3 3 3 3 3 4 4 4 4 4 5 5 6 6 6 6 6 7 7 8 8 8 8 7 7 7 7 7 7 7 7 7 9 11 16 24 35 49 66 81 90 94 98 104 107 105 103 102 101 101 102 101 100 100 100 100 102 105 104 103
4 4 3 3 4 4 3 3 3 3 3 3 3 3 3 3 3 3 3 3 4 4 4 4 4 5 6 6 6 6 6 6 7 7 8 8 9 8 8 7 7 7 7 7 7 8 9 11 16 23 32 45 59 72 83 91 96 101 104 105 103 101 101 101 100 100 100 101 100 100 102 103 103 104
4 4 4 3 4 4 3 3 3 3 3 3 3 3 4 3 4 4 3 3 4 4 4 4 4 5 5 6 6 6 6 6 7 7 7 8 9 9 8 8 8 7 7 7 7 8 10 12 16 21 28 39 50 61 73 84 91 96 101 104 104 103 102 101 101 101 102 102 100 100 101 102 102 102
4 4 4 4 4 4 4 4 4 3 3 3 3 3 4 4 3 4 4 3 3 4 4 4 4 4 5 5 6 6 7 7 7 7 7 7 8 9 9 9 9 8 8 7 7 8 10 12 15 19 24 32 42 56 71 83 90 94 99 101 103 104 103 102 102 102 101 100 101 100 100 101 102 102
5 4 4 4 4 4 4 4 4 3 3 3 3 3 3 4 4 4 4 4 4 4 4 4 4 4 4 5 5 6 7 7 7 7 7 7 8 8 8 9 9 9 9 8 8 8 9 11 13 17 22 28 37 52 67 78 84 89 95 99 102 104 104 103 104 103 101 100 101 100 100 101 101 100
5 5 5 4 4 4 4 4 4 4 3 3 4 3 3 4 4 4 4 4 4 4 4 4 4 4 4 5 5 5 6 7 7 7 8 7 7 8 8 8 9 9 9 9 9 8 9 11 13 16 20 25 32 43 56 67 76 84 92 98 102 103 104 104 105 103 100 100 101 101 100 100 100 101
5 5 5 5 4 4 4 4 4 4 4 3 4 4 3 3 3 4 4 4 4 4 4 4 4 4 4 5 5 5 5 6 6 7 7 8 8 8 8 8 9 9 9 10 9 9 9 10 12 15 19 23 28 35 44 55 67 78 86 93 100 103 104 105 104 101 99 100 101 100 100 101 101 102
5 5 5 6 5 4 4 4 4 5 4 4 4 4 3 4 4 3 4 4 4 4 5 4 4 4 4 4 5 5 5 5 6 6 7 7 8 8 8 8 8 9 9 10 10 10 9 10 11 13 16 21 26 31 36 44 55 66 77 87 96 101 104 105 104 102 100 101 101 100 100 101 101 101
Wind_Speed
37 36 35 38 43 45 46 48 51 53 55 59 63 67 68 69 70 73 76 78 81 85 88 90 93 97 103 109 114 119 121 122 123 124 127 129 131 132 132 132 131 129 125 122 119 116 113 111 107 104 101 99 96 94 93 91 88 87 88 88 89 91 96 100 99 95 94 92 92 91 89 89 89 89
35 33 33 36 41 45 46 46 47 48 52 56 60 65 68 68 68 70 73 76 80 83 84 86 90 94 99 105 110 114 119 121 122 122 123 125 128 129 130 131 130 129 126 122 120 117 114 111 107 104 101 99 97 95 93 92 89 88 87 87 89 91 97 104 103 100 97 94 92 89 85 85 85 84
34 32 32 35 39 43 45 45 45 45 48 53 57 61 66 68 68 68 69 73 78 81 82 84 88 92 95 101 105 109 114 118 121 121 121 123 125 126 128 129 129 128 126 123 120 117 114 112 108 104 102 100 98 96 94 93 90 88 86 86 89 92 99 107 109 107 103 98 95 91 86 85 84 83
33 32 32 33 36 40 43 43 44 44 46 50 54 58 62 67 69 67 66 70 75 78 81 83 86 89 92 97 101 104 109 114 118 120 121 121 122 123 125 126 127 127 126 123 120 118 115 112 109 105 103 101 99 97 95 94 91 89 87 87 89 91 99 108 112 113 111 105 100 95 91 89 87 85
32 31 31 31 33 37 40 41 42 43 45 48 51 55 59 64 68 68 65 68 72 75 79 82 84 87 90 93 96 100 104 109 114 118 120 120 120 120 121 123 125 125 125 123 121 118 115 112 109 106 103 101 100 98 96 94 92 90 88 88 89 90 96 108 112 111 113 110 104 98 95 92 90 87
30 30 30 29 30 34 37 38 39 40 44 47 49 53 57 61 66 68 66 66 70 73 75 80 83 84 87 89 93 97 101 105 110 115 118 120 119 119 119 120 122 123 123 123 121 118 115 113 110 107 104 102 101 99 97 95 93 91 90 88 88 88 93 106 113 109 109 108 102 97 95 94 92 90
29 29 28 27 28 31 33 34 35 38 42 46 47 49 54 59 63 67 67 65 68 71 73 78 82 82 83 87 91 94 99 103 106 110 115 118 119 118 117 117 119 120 122 122 121 118 115 113 111 108 106 104 102 100 98 96 94 92 91 89 87 87 90 103 113 109 104 103 100 96 94 94 94 92
27 27 26 26 26 29 31 31 32 36 40 44 46 47 50 56 60 64 67 66 66 70 71 74 80 80 80 85 89 92 96 100 103 107 111 116 118 118 117 116 117 118 120 120 120 118 115 114 112 110 108 105 103 101 99 97 94 93 92 89 87 87 88 97 110 112 104 100 99 98 96 95 95 93
27 26 25 24 25 27 29 29 30 35 39 42 45 46 48 53 57 61 66 67 66 68 69 71 77 78 78 83 88 90 93 96 100 104 108 112 115 117 116 115 115 117 118 119 119 117 115 114 112 111 109 106 104 102 100 98 95 94 93 91 88 87 88 92 103 113 111 104 101 101 100 99 96 93
28 26 24 23 23 24 27 28 29 33 37 40 43 46 47 50 54 58 63 66 65 65 66 68 73 77 77 81 86 89 91 94 97 101 104 108 112 115 116 115 115 115 116 117 117 117 115 114 113 111 109 107 104 102 100 98 96 94 94 92 89 88 88 89 94 106 114 113 107 104 105 105 100 94
27 25 24 23 22 22 24 26 28 31 35 38 42 44 45 47 51 56 61 65 65 64 64 67 71 74 76 78 82 86 89 91 94 98 101 105 109 112 114 115 115 115 115 116 116 116 115 114 113 112 110 108 105 103 101 98 97 95 94 93 91 88 87 87 89 97 109 115 110 104 104 106 103 97
27 25 23 21 20 21 22 24 26 29 32 36 39 42 43 45 48 53 58 63 65 63 63 65 68 72 75 76 79 83 87 89 91 95 98 102 106 110 113 114 115 114 115 115 116 116 115 114 114 113 111 109 106 104 102 99 97 96 95 93 92 89 87 87 88 94 104 111 111 106 103 103 103 100
27 25 22 20 19 19 20 22 24 27 30 33 36 39 41 43 46 51 57 62 64 62 60 62 66 70 72 74 77 80 84 87 89 92 95 99 103 107 111 113 114 114 114 115 115 115 115 114 114 113 111 109 107 105 102 100 98 97 96 94 92 90 88 88 89 93 100 107 111 110 108 107 105 103
28 25 22 19 17 17 18 20 22 25 28 30 33 36 39 42 45 50 56 61 63 60 58 59 64 66 68 72 74 77 81 84 87 89 93 97 101 105 109 112 113 114 114 114 114 114 114 114 113 113 112 110 108 106 104 102 100 98 97 95 93 91 90 90 91 93 96 102 107 109 110 112 112 111
28 25 22 19 16 16 17 18 21 23 25 28 31 34 37 40 44 49 55 59 61 58 56 57 60 63 66 70 73 75 78 82 84 87 91 95 99 102 106 110 112 113 113 113 113 113 113 113 113 112 112 111 109 108 106 104 102 100 99 97 94 92 91 92 92 93 94 96 99 101 101 103 106 110
29 26 22 19 16 15 15 17 19 21 23 26 28 32 35 38 42 48 53 57 58 56 54 55 59 63 65 68 71 74 76 80 83 86 90 93 96 99 104 108 111 112 113 113 113 113 113 113 113 113 112 111 110 109 107 106 103 101 100 98 95 93 93 93 93 92 92 92 94 95 95 95 96 100
29 26 23 19 16 14 14 15 17 19 21 24 26 29 32 35 39 45 50 54 55 54 52 55 59 63 64 66 70 73 74 78 82 85 88 91 93 97 101 106 109 112 113 113 113 113 113 113 113 113 112 112 111 110 109 107 105 102 101 99 97 95 94 94 94 92 91 91 91 91 92 92 93 96
29 27 24 20 16 13 13 14 15 17 20 22 24 27 30 34 38 42 47 51 52 51 52 55 59 61 62 64 68 72 74 76 80 84 87 89 91 94 99 104 108 111 112 113 114 114 113 113 113 113 113 112 112 111 110 108 106 104 102 100 98 96 95 95 96 93 91 91 90 89 90 90 91 94
30 27 24 21 17 13 12 13 14 16 17 19 22 25 30 34 39 43 46 49 50 51 52 54 55 56 58 61 66 71 73 75 79 83 86 88 90 93 97 102 106 110 112 113 114 114 114 113 113 113 113 113 112 112 111 109 107 105 103 101 99 97 96 97 97 94 92 91 90 89 90 90 91 92
32 28 25 22 18 14 12 12 12 14 15 17 20 24 29 34 38 42 45 47 48 50 50 51 51 52 54 59 64 69 71 73 76 80 84 86 88 91 95 99 104 108 112 113 114 114 114 114 113 114 113 113 113 112 112 111 109 107 105 102 100 99 98 98 98 95 93 92 91 90 90 91 91 93
33 29 25 23 20 16 12 11 11 12 14 16 19 23 27 31 35 38 41 43 45 46 45 46 47 49 52 57 62 66 70 71 74 77 81 84 87 89 93 98 102 107 111 113 114 115 115 115 114 114 114 113 113 113 113 112 110 108 106 104 102 101 99 99 98 96 93 92 92 91 91 91 93 95
35 30 26 23 21 17 13 10 10 11 13 15 18 21 24 28 31 34 37 39 40 41 40 41 44 47 51 56 61 65 68 70 72 75 79 83 85 88 92 96 101 105 109 113 114 115 116 116 115 115 115 114 114 114 114 113 112 110 108 105 104 102 101 100 98 96 94 93 93 93 93 93 94 96
36 32 28 24 21 18 14 10 9 10 12 14 17 19 22 25 28 31 33 35 36 36 37 39 42 46 51 55 59 63 67 69 71 73 77 81 84 87 91 95 99 103 108 112 114 115 116 116 116 116 115 114 114 114 114 114 113 111 109 107 105 104 103 101 99 97 95 94 94 94 95 95 95 96
37 33 29 25 22 19 16 11 8 9 11 13 15 17 19 22 25 28 30 31 32 33 35 37 41 45 49 53 57 61 64 67 69 71 75 79 83 86 89 93 97 101 105 110 113 115 116 117 117 116 115 115 115 115 115 114 114 112 111 109 107 106 104 102 101 99 97 95 95 95 96 97 96 96
39 35 31 26 23 20 17 13 9 8 10 12 14 16 17 20 23 26 29 30 32 33 35 38 41 44 47 50 54 59 62 64 66 68 72 76 81 84 88 92 96 99 103 108 112 115 116 116 117 117 116 115 115 115 115 116 115 114 112 111 109 107 106 104 102 101 99 97 96 96 97 98 98 98
39 36 32 28 24 21 17 14 10 7 8 11 13 15 16 18 22 25 28 31 34 36 37 40 42 44 46 48 52 56 59 61 63 66 69 73 78 82 86 90 94 98 102 106 110 114 115 116 117 117 117 116 116 116 116 116 116 115 114 112 110 109 107 106 104 102 101 99 98 97 98 99 100 100
40 36 33 29 25 22 18 15 11 8 7 9 12 14 16 18 21 24 28 32 35 37 38 40 42 43 44 47 50 53 56 59 61 64 67 70 75 79 83 87 92 95 100 104 109 112 115 116 117 117 118 117 117 117 117 117 116 116 115 114 112 110 109 107 106 104 102 101 100 99 99 101 101 102
40 37 34 31 27 23 20 16 13 9 7 8 11 13 16 18 20 23 26 30 33 35 37 39 41 42 43 45 48 51 54 57 60 62 65 68 72 76 80 84 88 93 97 101 106 110 114 116 118 118 119 118 118 118 118 118 117 116 116 115 113 112 110 108 107 106 104 103 102 101 101 101 103 104
41 38 34 32 28 24 21 17 14 11 8 7 9 13 15 18 20 21 23 27 30 33 35 38 39 41 43 45 47 50 53 56 58 61 64 67 70 73 77 81 86 90 95 99 103 108 112 115 118 119 119 119 119 119 119 119 118 118 117 116 115 113 111 109 108 107 105 104 103 102 101 102 103 105
42 39 36 33 30 26 22 18 15 12 9 8 9 11 14 17 19 20 21 25 28 31 33 36 38 39 42 45 47 50 53 55 58 60 63 65 68 71 75 79 84 88 93 97 101 105 110 114 117 119 120 120 120 120 120 120 119 118 117 116 115 114 112 110 109 108 107 105 105 104 103 103 104 106
42 40 36 33 30 27 24 20 16 14 11 9 9 11 13 15 17 19 21 24 27 30 32 35 36 38 41 44 48 51 53 55 57 59 61 63 66 69 73 77 81 86 91 95 99 103 107 112 115 118 119 120 121 121 120 120 120 119 118 117 116 115 113 111 110 109 108 107 106 106 106 105 106 106
44 40 37 34 31 28 25 21 18 15 12 10 10 10 12 13 16 18 21 24 27 30 32 34 35 37 39 43 47 50 53 54 56 58 60 62 65 67 71 74 79 83 88 93 97 101 105 109 114 117 118 119 120 120 120 120 120 120 120 119 118 116 115 113 111 110 110 109 108 108 108 108 109 110
46 43 40 36 32 28 25 22 19 16 13 11 10 10 11 12 14 17 21 24 26 30 32 34 35 36 38 42 45 49 51 53 55 56 58 61 63 66 68 72 76 80 85 90 94 99 103 108 112 115 117 119 119 119 120 120 120 120 121 120 119 118 117 115 113 111 111 110 110 110 111 111 112 113
46 44 40 36 33 29 26 23 20 17 14 12 11 10 10 12 13 16 19 23 26 28 32 34 36 37 38 40 44 47 49 52 54 55 57 59 61 64 67 69 73 77 82 87 92 96 101 105 109 113 116 118 119 119 119 120 120 121 121 121 120 119 118 116 115 113 112 112 112 112 114 115 116 115
46 43 40 37 33 30 27 23 21 18 15 13 11 10 10 11 13 15 18 21 25 27 30 33 36 38 39 40 43 45 47 50 52 54 56 58 60 62 65 67 70 75 79 84 89 94 98 103 107 111 114 117 118 119 119 119 120 120 120 120 120 119 119 118 116 115 114 114 113 114 115 118 119 119
47 43 40 38 34 31 28 25 21 19 16 14 12 11 10 10 11 14 17 20 23 26 29 32 35 37 39 41 43 45 47 49 51 53 55 57 59 61 63 65 68 72 77 82 86 91 96 100 105 109 112 115 117 118 118 119 120 120 120 120 120 120 119 119 118 117 116 115 115 115 116 118 122 123
48 44 41 38 36 32 29 26 23 19 17 15 13 12 11 10 11 13 16 19 22 25 28 31 34 36 39 41 43 44 46 48 50 51 53 55 57 59 61 63 66 69 73 78 83 88 93 98 102 107 111 114 116 117 118 119 119 119 120 120 120 120 120 119 119 119 118 117 116 116 118 119 122 125
49 46 43 39 37 34 31 27 24 21 18 16 14 12 11 11 11 12 14 17 21 24 27 30 32 35 38 40 42 44 46 48 49 51 52 54 56 57 59 62 64 67 70 75 80 85 90 95 100 105 109 112 115 117 118 118 118 119 120 120 120 120 120 120 120 120 120 119 118 118 119 120 122 126
50 48 45 41 37 35 32 29 26 22 19 17 14 13 12 11 11 12 13 16 19 22 25 28 31 34 36 39 41 44 45 47 49 50 51 53 54 56 58 60 62 65 68 72 77 82 87 92 97 102 106 110 114 116 117 118 119 119 120 120 120 120 120 121 121 121 120 120 120 119 120 121 123 125
52 49 47 43 39 36 33 30 28 24 21 18 15 14 12 12 11 12 13 15 18 21 24 26 29 32 35 38 40 42 45 46 48 50 51 53 54 56 57 58 60 63 66 70 74 79 84 89 94 99 104 108 111 114 116 118 119 119 120 120 120 121 121 121 122 121 121 121 121 121 121 122 123 124
52 50 48 45 42 38 34 31 29 26 23 20 17 15 13 12 12 12 13 15 17 19 22 25 28 31 33 36 39 41 43 46 47 49 51 53 54 56 57 58 59 61 64 67 71 76 81 86 91 96 100 105 109 112 115 117 118 119 120 120 121 121 122 122 123 123 122 122 122 122 122 123 124 125
53 50 48 46 43 40 37 33 30 27 25 22 19 16 14 13 13 13 13 15 16 18 21 23 26 29 32 35 37 40 42 44 46 49 51 52 54 56 57 58 59 61 62 65 69 73 77 82 87 92 97 101 106 110 114 116 118 119 119 120 121 122 123 123 124 124 124 123 123 123 123 123 124 124
53 51 49 47 44 41 38 35 32 29 26 24 21 18 16 14 13 13 14 15 16 18 20 22 25 27 30 33 36 38 41 43 45 47 50 52 54 55 57 58 59 61 62 64 67 70 75 79 84 89 93 98 102 107 111 114 117 118 119 120 121 122 123 124 124 125 125 125 125 125 125 125 124 124
52 50 49 47 45 42 39 36 34 31 27 25 22 20 18 16 14 14 14 15 16 18 19 21 23 26 29 31 34 37 39 41 44 46 48 51 53 55 56 58 59 61 63 64 66 68 72 76 81 85 90 94 99 103 108 111 115 117 119 120 121 122 123 124 125 125 126 126 127 127 127 127 126 126
51 50 48 47 46 43 40 37 34 32 29 26 24 22 20 18 16 15 14 15 16 18 20 21 23 25 27 30 33 35 38 40 42 44 47 49 52 54 56 58 59 61 63 64 66 67 70 73 77 81 86 90 95 99 104 108 112 115 118 119 121 122 123 124 125 126 127 128 128 129 129 128 128 128
Wind_Direction
278 272 265 260 257 254 249 246 243 241 239 237 238 239 239 236 233 231 229 228 229 229 227 226 224 222 222 222 222 222 221 221 222 222 223 223 223 223 224 225 226 227 226 226 226 226 226 227 226 225 225 225 225 225 226 226 225 225 224 222 220 216 215 213 213 217 222 223 224 227 229 231 233 235
282 275 266 259 256 255 252 249 245 241 239 238 236 237 239 237 233 230 229 227 228 229 227 226 225 223 221 222 222 221 221 221 221 222 222 223 223 223 223 224 225 226 226 225 225 226 226 226 225 224 224 224 225 225 225 225 224 224 223 221 219 216 213 211 211 214 219 220 221 223 226 229 231 232
286 278 269 260 256 255 254 251 247 242 239 238 236 235 236 238 235 231 228 227 227 228 227 225 225 224 222 221 222 221 221 221 220 221 221 222 222 222 222 223 223 224 225 225 225 225 225 225 224 223 223 223 224 224 225 225 223 223 223 221 219 216 211 210 212 214 216 218 219 220 224 227 229 230
287 281 272 263 257 255 253 251 248 243 239 236 235 235 234 236 237 233 227 226 226 226 227 226 224 223 222 221 221 221 220 220 220 220 221 221 222 222 222 222 222 223 224 224 224 224 224 225 224 223 222 223 223 223 224 224 222 222 222 220 219 217 212 210 213 215 216 218 219 220 222 224 224 226
290 284 276 268 261 256 254 252 248 244 241 237 234 233 233 233 236 235 228 225 226 225 225 226 224 222 222 221 220 220 220 219 219 219 219 220 221 221 221 221 222 222 222 223 223 223 223 224 224 223 222 222 222 222 223 224 222 221 221 221 218 217 214 210 211 215 217 218 220 221 222 222 221 222
293 287 280 272 264 258 255 253 250 245 242 239 235 232 232 231 233 235 231 225 225 225 223 225 226 222 220 221 220 220 219 219 219 218 218 219 219 220 220 220 221 221 221 222 222 222 222 223 223 223 222 222 222 222 222 223 222 221 221 221 218 217 214 210 210 214 216 217 219 220 220 221 221 222
298 291 284 276 268 261 257 253 249 244 240 239 236 231 230 231 231 233 234 228 225 225 223 223 226 223 219 219 219 219 219 218 218 218 217 217 218 218 219 219 220 220 221 221 221 221 221 222 222 222 222 221 221 221 222 222 222 221 220 220 219 217 215 211 209 212 215 215 217 218 219 221 223 223
302 295 287 280 271 264 258 252 246 242 239 238 236 232 228 230 230 231 234 231 225 225 223 221 225 225 219 218 219 218 218 218 217 217 217 216 216 217 217 218 219 219 220 220 221 220 220 221 221 222 221 221 221 221 221 221 221 221 220 220 218 217 216 214 211 211 213 215 217 218 219 221 223 223
307 300 292 283 274 266 260 253 244 240 238 237 236 233 228 227 228 229 232 232 227 225 223 221 223 225 221 218 218 218 217 217 217 216 216 216 215 215 216 216 217 218 218 219 220 220 220 220 220 221 221 220 221 220 220 220 221 221 220 219 218 217 216 216 214 212 213 215 218 220 221 222 222 222
312 305 297 289 278 268 261 255 246 240 238 236 235 234 229 226 226 227 230 232 229 225 223 221 222 224 222 219 218 217 217 217 216 216 215 215 214 214 214 215 216 217 217 218 219 219 219 219 220 221 221 220 220 220 220 220 220 221 221 219 218 217 216 216 216 215 214 216 219 221 222 223 222 220
316 310 302 293 283 272 263 256 249 241 238 236 234 234 231 226 224 225 228 231 231 227 223 221 221 222 222 220 218 218 217 216 216 215 215 214 213 213 213 214 214 215 216 217 218 218 218 218 219 220 220 220 220 220 220 220 220 221 221 219 218 217 216 216 216 216 214 215 217 219 220 222 221 220
321 315 307 297 287 276 266 257 250 244 238 235 234 233 231 227 223 223 225 229 230 227 222 220 220 221 221 220 218 217 217 216 215 215 215 214 213 212 212 212 213 214 215 216 216 217 217 218 218 219 220 220 220 220 220 220 220 221 221 220 219 218 217 216 216 216 215 214 215 217 219 220 220 220
326 321 313 302 291 279 267 258 250 244 238 234 233 232 230 226 222 221 224 227 229 227 222 219 220 220 220 220 219 217 216 216 215 215 214 214 213 211 211 211 212 212 214 215 215 216 217 217 218 218 219 219 219 220 220 220 220 221 221 220 220 219 218 217 216 215 215 215 216 218 219 221 221 221
331 326 319 308 296 282 269 259 251 244 239 234 231 230 228 225 222 220 222 226 229 228 223 219 220 220 219 219 219 217 216 216 215 214 214 213 212 211 210 210 211 211 212 213 215 215 216 216 217 217 218 219 219 219 219 220 220 220 221 220 220 220 220 220 218 216 215 216 217 219 222 225 224 225
335 331 325 314 301 287 272 261 252 244 239 234 230 228 226 224 222 220 222 225 228 228 223 219 219 219 218 218 219 217 216 215 215 214 214 213 212 211 210 209 210 210 211 212 214 214 215 216 216 217 217 218 219 219 219 219 220 220 220 220 220 220 222 222 222 220 218 218 219 220 222 226 226 226
338 336 330 320 307 292 277 263 253 244 238 233 229 227 225 223 222 222 223 225 228 227 223 219 218 218 217 217 217 217 215 214 214 214 214 213 213 211 210 209 209 210 210 211 213 213 214 215 215 216 217 217 218 219 219 219 219 219 219 220 220 221 222 224 224 223 222 222 222 221 221 224 225 226
341 339 335 326 313 298 282 267 255 245 237 232 228 225 223 222 221 223 225 227 228 227 223 219 218 217 216 215 216 216 215 214 214 214 213 213 212 211 210 209 209 209 209 210 212 212 213 214 214 215 216 216 217 218 219 219 219 219 219 220 220 220 222 224 225 224 224 225 226 225 223 224 224 225
345 342 340 332 321 305 288 272 258 247 239 232 228 223 220 219 219 221 224 227 228 227 224 221 219 217 215 214 215 216 215 214 213 213 213 213 212 211 210 209 208 208 209 209 211 212 212 212 213 214 215 215 216 217 218 219 219 219 219 219 220 220 221 223 225 225 225 226 227 227 226 226 225 225
349 346 343 337 327 313 294 277 263 252 243 235 229 224 220 218 218 219 221 224 226 226 224 222 221 218 215 214 215 216 215 214 213 213 213 213 212 211 210 209 208 208 208 209 210 211 211 212 212 213 214 215 215 216 217 218 219 219 220 220 220 220 220 222 224 224 224 226 227 227 227 227 227 226
351 349 346 341 333 321 303 284 270 256 246 236 229 224 222 221 221 222 223 224 224 224 224 223 221 218 215 214 214 216 216 215 214 213 213 213 212 211 210 209 209 208 208 208 209 210 211 211 212 213 213 214 215 215 216 218 218 219 219 220 220 220 220 222 224 224 223 225 226 227 227 228 228 228
352 352 350 345 338 330 314 294 276 259 246 237 229 226 225 224 224 225 226 226 226 226 224 223 220 217 214 213 214 215 215 215 214 214 214 213 211 211 210 210 209 208 208 208 208 209 210 211 211 212 213 213 214 215 216 217 218 218 219 219 220 221 221 222 223 223 223 224 225 226 227 227 228 228
353 353 353 349 342 336 325 305 282 263 250 241 234 230 227 226 225 226 226 227 227 227 225 222 220 216 213 212 213 214 215 215 214 213 213 213 212 210 210 210 209 208 208 208 208 208 209 210 210 211 212 212 213 214 215 216 217 218 218 218 219 220 221 222 223 223 223 224 225 225 226 226 226 227
353 353 354 352 347 340 334 319 292 268 254 245 239 234 230 227 225 224 225 226 226 225 223 220 219 216 214 212 213 213 214 215 214 214 213 213 212 210 210 210 210 209 208 208 208 208 208 209 210 211 211 212 213 213 214 215 216 217 218 218 218 220 221 222 223 223 224 224 225 225 226 226 226 226
354 353 355 356 352 345 340 331 305 275 259 249 242 237 232 228 225 223 222 222 223 222 220 219 219 218 216 214 213 213 214 215 215 214 214 213 212 211 210 210 210 209 209 208 208 208 208 208 209 210 211 211 212 213 214 215 216 217 217 218 218 219 220 222 223 223 224 224 225 226 226 226 226 226
355 353 354 357 356 350 344 337 321 286 264 252 244 239 233 228 225 222 219 217 216 216 216 215 216 217 217 216 214 213 214 215 215 215 215 213 212 211 211 210 210 210 209 209 208 208 208 208 209 210 211 211 212 212 213 214 215 216 217 217 218 219 220 221 222 223 224 224 225 226 226 227 227 227
356 354 353 355 358 354 348 341 331 303 269 254 246 240 235 229 224 220 218 215 213 213 213 213 214 215 215 215 215 214 214 215 216 216 216 215 214 213 212 211 211 210 209 209 209 208 208 208 208 209 210 211 211 212 213 214 214 215 216 217 218 218 219 220 222 223 223 224 224 225 226 227 227 228
355 355 354 354 357 358 353 345 336 318 282 257 247 241 236 231 225 220 218 217 215 214 214 214 215 214 213 214 214 214 214 214 215 216 216 215 214 214 213 213 212 211 210 209 209 208 208 207 208 209 210 211 211 212 212 213 214 215 216 217 218 218 218 220 221 222 223 224 224 224 225 226 227 227
356 356 355 354 355 358 356 349 340 327 299 264 246 239 236 232 228 223 221 220 219 218 217 216 215 213 213 213 213 213 214 214 215 216 216 215 215 214 214 214 213 213 212 211 210 209 208 207 207 208 209 210 211 212 212 213 214 215 215 217 218 218 218 219 221 222 223 224 224 224 224 225 226 227
358 357 356 354 353 356 358 353 344 331 310 278 251 239 235 233 230 226 222 221 222 222 221 220 218 214 211 211 212 212 213 214 215 216 216 216 215 214 214 214 214 214 213 212 211 210 209 208 207 207 208 209 210 211 212 213 213 214 215 216 217 218 218 218 219 221 222 223 224 224 224 224 225 225
0 358 356 355 353 353 356 356 348 335 318 293 265 246 237 235 232 227 221 220 221 222 223 223 221 217 212 210 210 211 212 214 215 216 216 216 215 214 213 214 214 214 214 213 212 211 210 209 208 208 208 208 209 210 211 212 213 214 215 215 216 218 218 217 218 220 222 222 223 224 224 224 225 225
2 359 357 355 354 352 353 355 353 341 325 304 280 260 245 237 233 227 221 218 218 219 221 223 223 220 215 212 211 211 212 213 214 215 216 217 216 215 214 214 214 214 214 214 213 212 211 209 209 208 208 208 209 210 211 212 213 213 214 215 216 217 218 218 217 219 221 222 223 223 224 224 225 226
1 1 359 356 354 352 350 351 352 347 333 314 294 274 257 243 234 229 224 220 217 217 218 220 222 221 218 215 213 213 213 213 214 215 216 216 217 216 215 215 214 215 215 214 214 213 212 210 209 209 208 208 209 209 210 211 212 213 214 215 215 216 217 218 217 218 220 221 222 223 224 224 224 225
1 0 359 356 354 352 350 348 348 348 340 324 304 285 269 253 239 230 226 224 220 218 218 218 219 220 220 218 216 215 215 214 215 216 216 217 217 217 216 216 216 215 215 215 214 213 213 211 210 209 209 209 209 209 210 211 212 213 214 214 215 215 216 217 217 217 218 221 222 223 223 223 224 225
2 360 358 356 354 351 350 347 345 345 342 333 316 295 277 262 248 235 229 226 224 221 219 218 218 219 219 219 219 218 217 216 216 216 217 217 217 217 217 217 217 217 216 216 215 214 213 212 211 210 209 209 209 209 210 211 212 213 213 214 215 215 216 216 217 217 217 219 221 222 223 223 223 224
3 1 358 357 355 352 350 347 345 342 340 336 325 307 287 268 255 243 234 229 226 224 222 220 219 219 218 218 219 219 219 218 217 217 218 218 218 218 218 218 218 217 217 217 216 215 214 213 212 211 210 209 209 209 210 211 212 212 213 214 215 215 215 216 217 217 217 217 219 221 222 223 223 224
2 2 0 358 356 354 351 348 344 341 337 334 328 316 299 277 259 249 240 233 229 227 225 224 222 221 220 219 219 219 219 219 218 218 219 219 219 219 219 219 219 218 218 218 217 216 215 214 213 212 211 210 210 210 210 211 212 212 213 214 214 215 215 215 216 217 217 217 218 220 222 223 223 223
2 2 2 0 357 355 352 349 345 341 336 331 327 319 307 289 268 252 244 239 234 230 228 227 225 224 222 221 220 220 220 220 219 219 220 220 220 220 220 219 219 219 219 219 218 217 216 215 214 213 212 211 210 210 211 211 212 213 213 214 214 215 215 215 216 217 217 218 218 219 220 222 223 223
2 2 2 2 359 356 353 350 346 342 337 331 325 318 309 297 280 262 248 242 238 234 231 229 228 227 225 224 222 222 221 221 220 220 220 220 221 221 221 220 220 220 219 219 219 218 217 216 215 214 213 212 211 211 211 212 212 213 214 214 215 215 215 215 216 216 217 218 218 219 220 221 222 223
3 2 1 1 1 358 354 351 347 343 338 331 324 316 308 299 288 273 258 247 241 238 235 232 230 228 228 227 226 224 223 222 222 221 220 220 221 222 222 221 220 220 219 219 219 219 219 218 216 215 214 213 212 212 211 212 213 213 214 214 215 215 215 216 216 217 217 217 218 218 219 220 221 223
2 2 0 360 0 360 357 353 348 343 339 333 326 317 307 298 289 279 267 255 246 241 238 236 233 231 229 229 228 227 226 224 223 222 221 221 221 221 222 222 221 221 220 220 219 219 219 219 218 217 216 215 214 213 212 212 213 214 214 214 215 215 215 216 216 217 217 217 218 219 220 220 221 222
0 1 0 359 358 358 358 355 350 345 340 335 328 319 309 299 289 280 271 262 254 246 241 238 236 234 232 230 230 229 228 227 226 224 223 222 222 221 221 222 222 222 221 221 220 220 219 219 219 218 218 217 215 214 213 213 213 214 215 215 215 215 215 216 216 217 218 218 218 219 220 221 221 222
360 360 360 359 358 357 356 356 353 348 341 336 330 323 313 301 290 281 272 265 258 252 246 241 238 236 235 234 232 231 230 229 228 227 225 224 224 223 222 222 222 222 222 222 221 221 220 220 220 219 219 218 217 216 215 214 214 215 215 216 216 216 216 216 216 217 217 218 219 220 221 221 222 223
1 0 359 359 358 356 355 354 353 350 344 338 332 325 317 306 294 283 275 267 260 255 250 246 241 238 236 236 235 234 233 231 230 229 228 227 226 225 224 223 223 222 222 222 222 221 221 221 221 220 220 220 219 217 216 216 216 215 216 216 217 217 217 217 217 217 217 218 219 220 221 222 223 223
1 1 0 359 357 356 354 353 352 350 347 341 334 327 320 311 299 288 277 269 263 258 253 249 245 242 239 237 236 236 235 234 232 231 230 229 228 227 226 225 224 223 223 222 222 222 222 222 222 221 221 221 220 220 219 218 217 217 217 217 217 218 218 218 218 218 218 219 219 220 221 222 223 223
2 2 1 360 358 356 354 353 351 350 348 344 337 330 322 314 305 294 283 273 265 260 256 251 248 245 242 239 237 236 236 236 235 234 232 231 230 228 228 227 226 225 224 223 223 223 223 222 223 222 222 222 222 222 221 220 219 218 218 218 218 219 219 219 219 219 219 220 220 221 222 223 223 224